Content
SEND FEEDBACK

Daily
Averages
Monthly
Summary
United States of America

PECK, KANSAS


Home > North America > United States > Kansas
Elevation: 1280 feet     Latitude: 37 29N     Longitude: 097 22W

WEATHER
 
SELECT A DAY
Number of Records: 192,005;   Date Range: 1/1/95 - 8/12/14
 
SHARE

PRINT THIS DATA

[ ← Previous Day ]
WEATHER ALMANAC - FEBRUARY 3, 2013
[ Next Day → ]
[ °C ]   °F
Weather ElementAverageHighLow
Temperature45.1 °F57 °F (2:53 pm)24.1 °F (7:53 am)
Dewpoint23.6 °F28.9 °F (10:53 pm)19.9 °F (7:53 am)
Humidity45.9 %84 % (7:53 am)24 % (2:53 pm)
Barometer30.13 in30.32 in (7:53 am)29.86 in (11:53 pm)
Wind Speed10.8 mph20.7 mph (3:53 pm)
Wind Gust27.6 mph (3:53 pm)
Weather ElementAverage
Visibility10 mi
Wind DirectionS (177.8 °)

Weather ElementTotal
Precipitation---
Heating Degree Days24.5 (Base 65)
Averaged from 23 records on February 3, 2013
WEATHER CONDITIONS BREAKOUT
WIND DIRECTION BREAKOUT
WEATHER BY HOUR - FEBRUARY 3, 2013
[ °C ]   °F
Local TimeTemperatureDewpointHumidityBarometerVisibilityWind DirectionWind SpeedGust SpeedPrecipitationEventsConditions
1:53 AM39.0 °F23.0 °F53 %30.27 in10.0 miNNW (330°)10.4 mphClear
2:53 AM37.9 °F23.0 °F55 %30.27 in10.0 miNW (310°)9.2 mphClear
3:53 AM37.9 °F24.1 °F57 %30.27 in10.0 miNorth (360°)8.1 mphClear
4:53 AM35.1 °F23.0 °F61 %30.28 in10.0 miNorth (350°)6.9 mphPartly Cloudy
5:53 AM28.9 °F21.0 °F72 %30.30 in10.0 miWNW (300°)4.6 mphClear
6:53 AM28.0 °F21.0 °F75 %30.31 in10.0 miCalmClear
7:53 AM24.1 °F19.9 °F84 %30.32 in10.0 miCalmScattered Clouds
8:53 AM37.9 °F27.0 °F65 %30.30 in10.0 miCalmScattered Clouds
9:53 AM42.1 °F25.0 °F51 %30.29 in10.0 miESE (120°)5.8 mphScattered Clouds
10:53 AM46.0 °F21.9 °F39 %30.26 in10.0 miESE (110°)6.9 mphMostly Cloudy
11:53 AM50.0 °F21.0 °F32 %30.23 in10.0 miSE (140°)8.1 mphMostly Cloudy
12:53 PM52.0 °F19.9 °F28 %30.17 in10.0 miSouth (170°)12.7 mphMostly Cloudy
1:53 PM55.9 °F21.0 °F26 %30.12 in10.0 miSouth (170°)18.4 mph21.9 mphMostly Cloudy
2:53 PM57.0 °F19.9 °F24 %30.06 in10.0 miSouth (180°)18.4 mph25.3 mphMostly Cloudy
3:53 PM57.0 °F21.0 °F25 %30.04 in10.0 miSouth (180°)20.7 mph27.6 mphMostly Cloudy
4:53 PM55.9 °F23.0 °F28 %30.01 in10.0 miSouth (170°)17.3 mphMostly Cloudy
5:53 PM53.1 °F24.1 °F32 %29.99 in10.0 miSSE (160°)12.7 mphMostly Cloudy
6:53 PM51.1 °F25.0 °F36 %29.97 in10.0 miSSE (160°)12.7 mphOvercast
7:53 PM50.0 °F26.1 °F39 %29.96 in10.0 miSouth (170°)15.0 mphOvercast
8:53 PM50.0 °F27.0 °F41 %29.93 in10.0 miSouth (170°)16.1 mphOvercast
9:53 PM50.0 °F28.0 °F43 %29.90 in10.0 miSouth (180°)18.4 mphOvercast
10:53 PM50.0 °F28.9 °F44 %29.87 in10.0 miSouth (180°)13.8 mphOvercast
11:53 PM48.9 °F28.9 °F46 %29.86 in10.0 miSouth (180°)11.5 mphOvercast
Hourly data recorded from KICT, located miles away from Peck, Kansas







STORIES FROM OUR PARTNERS